sat.trackr.live / text

‹ back to catalog

STARLINK-33963

NORAD 63968 · 2025-099S

PAYLOAD ACTIVE UNKNOWN

§ Identity

Operator
Country
US
Launch date
2025-05-13
Launch site
AFETR
Launch vehicle
Mass (kg)
RCS (m²)

Purposes: comms

External: N2YO · Heavens-Above · Gunter

§ Orbital elements

Epoch: 2026-09-20T02:39:47.591136Z

Period
94.27 min
Inclination
43.0079°
Eccentricity
0.0003513
Mean motion
15.27588454 rev/d
Perigee alt
480.6 km
Apogee alt
485.4 km
Semi-major
6,861.2 km
B*
5.3855e-4
RAAN
157.9489°
Arg perigee
242.2479°
Mean anomaly
117.8017°
Rev number
7,707

§ Raw data

STARLINK-339631 63968U 25099S   26263.11096749  .00014592  00000+0  53855-3 0  99922 63968  43.0079 157.9489 0003513 242.2479 117.8017 15.27588454 77077

JSON: /api/v1/satellites/63968 · /tle

For live sub-satellite position, see the globe view (requires WebGL).

§ Visibility from observer

Set your observer location to see the next 7 days of passes ≥ 10°. The values pass through the URL so the page stays shareable.

No JS? Fill the form by hand. The geolocation button needs JavaScript.